Location: Newark
(49.9386°N, 3.5850°E)
Time: 11:06:23
(UTC+00:00)

ISS - Visible Passes

Search period start: 26 January 2020 00:00
Search period end: 05 February 2020 00:00
Orbit: 416 x 423 km, 51.6° (Epoch: 27 January)

Date Brightness Start Highest point End Pass type
(mag) Time Alt. Az. Time Alt. Az. Time Alt. Az.
26 Jan -3.4 17:26:00 10° SW 17:29:20 54° SSE 17:31:56 15° E visible
26 Jan -2.1 19:02:46 10° W 19:04:54 35° WNW 19:04:54 35° WNW visible
27 Jan -3.7 18:15:11 10° W 18:18:35 74° N 18:19:21 49° ENE visible
27 Jan -0.2 19:52:11 10° WNW 19:52:19 11° WNW 19:52:19 11° WNW visible
28 Jan -3.8 17:27:38 10° WSW 17:31:02 87° NNW 17:33:46 15° ENE visible
28 Jan -2.1 19:04:37 10° WNW 19:06:44 34° WNW 19:06:44 34° WNW visible
29 Jan -3.6 18:17:01 10° W 18:20:24 63° N 18:21:08 47° NE visible
29 Jan -0.2 19:53:56 10° WNW 19:54:06 11° WNW 19:54:06 11° WNW visible
30 Jan -3.6 17:29:25 10° W 17:32:48 66° N 17:35:33 14° ENE visible
30 Jan -2.2 19:06:22 10° WNW 19:08:31 36° WNW 19:08:31 36° WNW visible
31 Jan -3.8 18:18:47 10° WNW 18:22:11 70° N 18:22:57 48° ENE visible
31 Jan -0.2 19:55:40 10° WNW 19:55:55 12° W 19:55:55 12° W visible
01 Feb -3.6 17:31:11 10° W 17:34:34 64° N 17:37:25 14° E visible
01 Feb -2.3 19:08:03 10° WNW 19:10:23 39° W 19:10:23 39° W visible
02 Feb -3.8 18:20:27 10° WNW 18:23:51 81° SSW 18:24:54 41° ESE visible
02 Feb -0.3 19:57:39 10° W 19:57:52 11° W 19:57:52 11° W visible
03 Feb -3.8 17:32:51 10° WNW 17:36:15 81° NNE 17:39:29 11° ESE visible
03 Feb -2.0 19:09:49 10° W 19:12:28 30° SW 19:12:28 30° SW visible
04 Feb -2.8 18:22:07 10° WNW 18:25:22 44° SSW 18:27:10 22° SSE visible
